| time (UTC) | temp F | wind direction | speed MPH | gust MPH | rain 1hr in | rain 24hr in | rain mn in | humidity % | barometer mb |
| 20260905034552 | 64 | 310 | 0.0 | 3.0 | 0.00 | 0.00 | 0.00 | 80 | 1010.0 |
| 20260905033059 | 64 | 271 | 0.0 | 4.0 | 0.00 | 0.00 | 0.00 | 79 | 1010.0 |
| 20260905031556 | 65 | 258 | 2.0 | 4.0 | 0.00 | 0.00 | 0.00 | 77 | 1010.0 |
| 20260905030053 | 66 | 0 | 0.0 | 6.0 | 0.00 | 0.00 | 0.00 | 75 | 1010.0 |
| 20260905024613 | 67 | 355 | 1.0 | 8.0 | 0.00 | 0.00 | 0.00 | 74 | 1010.0 |
| 20260905023052 | 67 | 32 | 2.0 | 8.0 | 0.00 | 0.00 | 0.00 | 73 | 1010.1 |
| 20260905021600 | 67 | 303 | 2.0 | 6.0 | 0.00 | 0.00 | 0.00 | 73 | 1010.2 |
| 20260905020106 | 68 | 0 | 2.0 | 6.0 | 0.00 | 0.00 | 0.00 | 72 | 1010.2 |
| 20260905014558 | 68 | 0 | 1.0 | 9.0 | 0.00 | 0.00 | 0.00 | 71 | 1010.2 |
| 20260905013102 | 68 | 9 | 1.0 | 7.0 | 0.00 | 0.00 | 0.00 | 70 | 1010.3 |
| 20260905011606 | 69 | 295 | 2.0 | 8.0 | 0.00 | 0.00 | 0.00 | 69 | 1010.2 |
| 20260905010055 | 69 | 336 | 1.0 | 5.0 | 0.00 | 0.00 | 0.00 | 69 | 1010.3 |
| 20260905004557 | 69 | 333 | 2.0 | 8.0 | 0.00 | 0.00 | 0.00 | 68 | 1010.3 |
| 20260905003102 | 70 | 9 | 2.0 | 6.0 | 0.00 | 0.00 | 0.00 | 67 | 1010.2 |
| 20260905001600 | 70 | 342 | 3.0 | 11.0 | 0.00 | 0.00 | 0.00 | 67 | 1010.2 |
| 20260905000057 | 70 | 352 | 4.0 | 11.0 | 0.00 | 0.00 | 0.00 | 66 | 1010.0 |
| 20260904234558 | 71 | 336 | 2.0 | 9.0 | 0.00 | 0.00 | 0.00 | 66 | 1009.9 |
| 20260904233059 | 71 | 263 | 4.0 | 11.0 | 0.00 | 0.00 | 0.00 | 65 | 1009.9 |
| 20260904231558 | 71 | 352 | 2.0 | 10.0 | 0.00 | 0.00 | 0.00 | 64 | 1010.0 |
| 20260904230057 | 72 | 348 | 2.0 | 10.0 | 0.00 | 0.00 | 0.00 | 63 | 1010.0 |
| 20260904224606 | 72 | 9 | 4.0 | 11.0 | 0.00 | 0.00 | 0.00 | 63 | 1009.8 |
| 20260904223054 | 73 | 283 | 2.0 | 9.0 | 0.00 | 0.00 | 0.00 | 62 | 1009.7 |
| 20260904221600 | 73 | 198 | 5.0 | 10.0 | 0.00 | 0.00 | 0.00 | 61 | 1009.8 |
| 20260904220059 | 73 | 56 | 3.0 | 12.0 | 0.00 | 0.00 | 0.00 | 61 | 1009.8 |
| 20260904214607 | 75 | 339 | 5.0 | 11.0 | 0.00 | 0.00 | 0.00 | 58 | 1009.7 |
| 20260904213101 | 76 | 46 | 4.0 | 14.0 | 0.00 | 0.00 | 0.00 | 57 | 1009.8 |
| 20260904211558 | 77 | 312 | 5.0 | 14.0 | 0.00 | 0.00 | 0.00 | 57 | 1009.8 |
| 20260904210059 | 78 | 283 | 5.0 | 13.0 | 0.00 | 0.00 | 0.00 | 60 | 1009.6 |
| 20260904204559 | 78 | 314 | 4.0 | 19.0 | 0.00 | 0.00 | 0.00 | 59 | 1009.6 |
| 20260904203053 | 79 | 339 | 4.0 | 12.0 | 0.00 | 0.00 | 0.00 | 57 | 1009.6 |
| 20260904201633 | 78 | 315 | 6.0 | 14.0 | 0.00 | 0.00 | 0.00 | 58 | 1009.7 |
| 20260904200122 | 77 | 352 | 5.0 | 16.0 | 0.00 | 0.00 | 0.00 | 60 | 1009.6 |
| 20260904194607 | 76 | 281 | 3.0 | 10.0 | 0.00 | 0.00 | 0.00 | 62 | 1009.4 |
| 20260904193111 | 76 | 306 | 4.0 | 13.0 | 0.00 | 0.00 | 0.00 | 61 | 1009.6 |
| 20260904191601 | 76 | 300 | 3.0 | 12.0 | 0.00 | 0.00 | 0.00 | 63 | 1009.7 |
| 20260904190117 | 76 | 5 | 5.0 | 13.0 | 0.00 | 0.00 | 0.00 | 61 | 1009.8 |
| 20260904184605 | 77 | 268 | 5.0 | 16.0 | 0.00 | 0.00 | 0.00 | 60 | 1009.7 |
| 20260904183100 | 78 | 36 | 4.0 | 11.0 | 0.00 | 0.00 | 0.00 | 61 | 1009.6 |
| 20260904181557 | 79 | 18 | 4.0 | 12.0 | 0.00 | 0.00 | 0.00 | 61 | 1009.6 |
| 20260904174559 | 78 | 32 | 6.0 | 11.0 | 0.00 | 0.00 | 0.00 | 61 | 1009.5 |
| 20260904173127 | 77 | 301 | 2.0 | 10.0 | 0.00 | 0.00 | 0.00 | 66 | 1009.7 |
| 20260904171609 | 77 | 297 | 4.0 | 12.0 | 0.00 | 0.00 | 0.00 | 65 | 1009.8 |
| 20260904170058 | 77 | 39 | 6.0 | 11.0 | 0.00 | 0.00 | 0.00 | 63 | 1010.0 |
| 20260904164605 | 78 | 275 | 2.0 | 9.0 | 0.00 | 0.00 | 0.00 | 65 | 1010.0 |
| 20260904163101 | 77 | 338 | 5.0 | 11.0 | 0.00 | 0.00 | 0.00 | 65 | 1010.2 |
| 20260904161602 | 76 | 13 | 2.0 | 14.0 | 0.00 | 0.00 | 0.00 | 67 | 1010.3 |
| 20260904160058 | 76 | 44 | 4.0 | 12.0 | 0.00 | 0.00 | 0.00 | 66 | 1010.6 |
| 20260904154556 | 76 | 5 | 6.0 | 14.0 | 0.00 | 0.00 | 0.00 | 66 | 1010.6 |
| 20260904153100 | 75 | 42 | 5.0 | 9.0 | 0.00 | 0.00 | 0.00 | 69 | 1010.7 |
| 20260904151613 | 75 | 32 | 2.0 | 12.0 | 0.00 | 0.00 | 0.00 | 71 | 1010.9 |
| 20260904150121 | 74 | 242 | 2.0 | 8.0 | 0.00 | 0.00 | 0.00 | 74 | 1011.0 |
| 20260904144603 | 73 | 292 | 1.0 | 7.0 | 0.00 | 0.00 | 0.00 | 76 | 1011.0 |
| 20260904143101 | 72 | 355 | 1.0 | 7.0 | 0.00 | 0.00 | 0.00 | 79 | 1011.1 |
| 20260904141609 | 70 | 0 | 1.0 | 5.0 | 0.00 | 0.00 | 0.00 | 85 | 1011.2 |
| 20260904140100 | 68 | 12 | 0.0 | 5.0 | 0.00 | 0.00 | 0.00 | 91 | 1011.2 |
| 20260904134557 | 68 | 239 | 0.0 | 3.0 | 0.00 | 0.00 | 0.00 | 94 | 1011.1 |
| 20260904133100 | 66 | 234 | 0.0 | 3.0 | 0.00 | 0.00 | 0.00 | 95 | 1011.2 |
| 20260904131557 | 64 | 327 | 1.0 | 5.0 | 0.00 | 0.00 | 0.00 | 95 | 1011.2 |
| 20260904130054 | 64 | 229 | 1.0 | 5.0 | 0.00 | 0.00 | 0.00 | 96 | 1011.2 |
| 20260904124557 | 63 | 267 | 2.0 | 4.0 | 0.00 | 0.01 | 0.00 | 95 | 1011.2 |
| 20260904123053 | 63 | 245 | 1.0 | 5.0 | 0.00 | 0.01 | 0.00 | 96 | 1011.2 |
| 20260904121559 | 62 | 307 | 2.0 | 4.0 | 0.00 | 0.01 | 0.00 | 95 | 1011.3 |
| 20260904120107 | 62 | 0 | 0.0 | 4.0 | 0.00 | 0.01 | 0.00 | 95 | 1011.2 |
| 20260904114556 | 62 | 218 | 1.0 | 3.0 | 0.00 | 0.04 | 0.00 | 95 | 1011.2 |
| 20260904113100 | 62 | 0 | 1.0 | 4.0 | 0.00 | 0.04 | 0.00 | 95 | 1011.0 |
| 20260904111605 | 62 | 248 | 2.0 | 5.0 | 0.00 | 0.04 | 0.00 | 95 | 1011.1 |
| 20260904104556 | 63 | 0 | 1.0 | 4.0 | 0.00 | 0.04 | 0.00 | 95 | 1011.0 |
| 20260904103057 | 62 | 334 | 1.0 | 5.0 | 0.00 | 0.04 | 0.00 | 95 | 1010.9 |
| 20260904101600 | 62 | 325 | 2.0 | 6.0 | 0.00 | 0.04 | 0.00 | 95 | 1010.7 |
| 20260904100056 | 63 | 283 | 2.0 | 5.0 | 0.00 | 0.04 | 0.00 | 95 | 1010.8 |
| 20260904094602 | 63 | 303 | 1.0 | 8.0 | 0.00 | 0.12 | 0.00 | 95 | 1010.8 |
| 20260904093109 | 63 | 263 | 3.0 | 10.0 | 0.00 | 0.12 | 0.00 | 95 | 1010.8 |
| 20260904091558 | 63 | 255 | 3.0 | 7.0 | 0.00 | 0.12 | 0.00 | 95 | 1010.7 |
| 20260904090057 | 62 | 257 | 3.0 | 7.0 | 0.00 | 0.12 | 0.00 | 95 | 1010.5 |
| 20260904084555 | 62 | 238 | 3.0 | 7.0 | 0.00 | 0.13 | 0.00 | 95 | 1010.6 |
| 20260904083101 | 62 | 134 | 2.0 | 5.0 | 0.00 | 0.13 | 0.00 | 95 | 1010.6 |
| 20260904081558 | 62 | 196 | 2.0 | 4.0 | 0.00 | 0.13 | 0.00 | 95 | 1010.6 |
| 20260904080055 | 62 | 240 | 1.0 | 3.0 | 0.00 | 0.13 | 0.00 | 95 | 1010.8 |
| 20260904074603 | 62 | 0 | 2.0 | 7.0 | 0.00 | 0.14 | 0.00 | 95 | 1011.1 |
| 20260904073050 | 62 | 256 | 2.0 | 4.0 | 0.00 | 0.14 | 0.00 | 95 | 1011.0 |
| 20260904071559 | 62 | 251 | 2.0 | 4.0 | 0.00 | 0.14 | 0.00 | 95 | 1011.1 |
| 20260904070101 | 62 | 222 | 1.0 | 4.0 | 0.00 | 0.14 | 0.00 | 95 | 1011.1 |
| 20260904064605 | 62 | 254 | 2.0 | 5.0 | 0.00 | 0.15 | 0.00 | 95 | 1011.4 |
| 20260904063116 | 62 | 263 | 2.0 | 6.0 | 0.00 | 0.15 | 0.00 | 94 | 1011.5 |
| 20260904061557 | 62 | 288 | 3.0 | 6.0 | 0.00 | 0.15 | 0.00 | 94 | 1011.5 |
| 20260904060100 | 62 | 238 | 2.0 | 4.0 | 0.00 | 0.15 | 0.00 | 94 | 1011.7 |
| 20260904054554 | 62 | 251 | 1.0 | 6.0 | 0.00 | 0.15 | 0.00 | 94 | 1012.0 |
| 20260904053100 | 62 | 213 | 2.0 | 4.0 | 0.00 | 0.15 | 0.00 | 94 | 1012.3 |
| 20260904051606 | 61 | 0 | 0.0 | 0.0 | 0.00 | 0.15 | 0.00 | 94 | 1012.5 |
| 20260904050108 | 61 | 0 | 0.0 | 0.0 | 0.00 | 0.15 | 0.00 | 94 | 1012.4 |
| 20260904044556 | 61 | 0 | 0.0 | 0.0 | 0.00 | 0.15 | 0.00 | 94 | 1012.4 |
| 20260904043100 | 61 | 0 | 0.0 | 0.0 | 0.00 | 0.15 | 0.00 | 94 | 1012.5 |
| 20260904041559 | 61 | 0 | 0.0 | 0.0 | 0.00 | 0.15 | 0.00 | 93 | 1012.7 |
| 20260904040110 | 61 | 0 | 0.0 | 0.0 | 0.00 | 0.15 | 0.00 | 93 | 1012.8 |